Weather History for Lumberton, NC

Change the Weather History Date:

Tuesday, November 6, 2012

  Actual Average Record
Temperature  
Mean Temperature 46 °F 57 °F  
Max Temperature 52 °F 70 °F 82 °F (2003)
Min Temperature 40 °F 44 °F 30 °F (2001)
Degree Days  
Heating Degree Days 19 9  
Month to date heating degree days 89 49  
Since 1 July heating degree days 215 181  
Cooling Degree Days 0 1  
Month to date cooling degree days 0 6  
Year to date cooling degree days 2053 1900  
Moisture  
Dew Point 35 °F    
Average Humidity 72    
Maximum Humidity 85    
Minimum Humidity 59    
Precipitation  
Precipitation 0.00 in 0.09 in 0.15 in (2002)
Month to date precipitation 0.11 0.49  
Year to date precipitation 39.43 38.25  
Sea Level Pressure  
Sea Level Pressure 30.01 in    
Wind  
Wind Speed 9 mph (NNE)    
Max Wind Speed 17 mph    
Max Gust Speed 23 mph    
Visibility 10 miles    
Events      
T = Trace of Precipitation, MM = Missing Value Source: NWS Daily Summary

Daily Weather History Graph

Daily Weather History Graph

Search for Another Location

Airport:

Trip Planner

Search our weather history database for the weather conditions in past years. The results will help you decide how hot, cold, wet, or windy it might be!

Date:

Astronomy

Nov. 06, 2012 Rise Set
Actual Time 6:41 AM EST 5:17 PM EST
Civil Twilight 6:15 AM EST 5:43 PM EST
Nautical Twilight 5:45 AM EST 6:13 PM EST
Astronomical Twilight 5:15 AM EST 6:43 PM EST
Moon 11:51 PM EST (11/6) 12:35 PM EST (11/6)
Length of Visible Light 11h 28m
Length of Day
10h 35m
Waning Gibbous, 53% of the Moon is Illuminated
Nov 6
Waning Gibbous
Nov 6
Last Quarter
Nov 13
New
Nov 20
First Quarter
Nov 28
Full

Hourly Weather History & Observations

Time (EST) Temp. Windchill Dew Point Humidity Pressure Visibility Wind Dir Wind Speed Gust Speed Precip Events Conditions
1:54 AM 41.0 °F 38.0 °F 34.0 °F 76% 30.09 in 10.0 mi ENE 4.6 mph - N/A   Clear
2:54 AM 39.9 °F 36.7 °F 35.1 °F 83% 30.09 in 10.0 mi ENE 4.6 mph - N/A   Clear
3:54 AM 39.9 °F 36.7 °F 35.1 °F 83% 30.08 in 10.0 mi ENE 4.6 mph - N/A   Clear
4:54 AM 41.0 °F 35.2 °F 35.1 °F 79% 30.04 in 10.0 mi NE 9.2 mph - N/A   Partly Cloudy
5:54 AM 41.0 °F 37.1 °F 35.1 °F 79% 30.07 in 10.0 mi NE 5.8 mph - N/A   Clear
6:54 AM 41.0 °F 37.1 °F 35.1 °F 79% 30.09 in 10.0 mi North 5.8 mph - N/A   Overcast
7:54 AM 42.1 °F 36.1 °F 35.1 °F 76% 30.08 in 10.0 mi NNE 10.4 mph - N/A   Scattered Clouds
8:54 AM 42.1 °F 37.7 °F 34.0 °F 73% 30.10 in 10.0 mi NNE 6.9 mph - N/A   Mostly Cloudy
9:54 AM 42.1 °F 37.1 °F 34.0 °F 73% 30.08 in 10.0 mi NNE 8.1 mph - N/A   Overcast
10:54 AM 43.0 °F 35.7 °F 34.0 °F 71% 30.04 in 10.0 mi NNE 15.0 mph - N/A   Overcast
11:54 AM 44.1 °F 39.0 °F 34.0 °F 68% 30.05 in 10.0 mi NNE 9.2 mph - N/A   Overcast
12:54 PM 46.0 °F 40.2 °F 35.1 °F 66% 30.00 in 10.0 mi NNE 12.7 mph - N/A   Overcast
1:54 PM 48.9 °F - 35.1 °F 59% 29.96 in 10.0 mi NNE 16.1 mph 23.0 mph N/A   Partly Cloudy
2:54 PM 51.1 °F - 37.0 °F 59% 29.94 in 10.0 mi NNE 15.0 mph - N/A   Mostly Cloudy
3:54 PM 48.9 °F - 37.0 °F 64% 29.95 in 10.0 mi NNE 9.2 mph - N/A   Overcast
4:29 PM 48.2 °F - 35.6 °F 62% 29.96 in 10.0 mi NNE 9.2 mph - N/A   Overcast
4:54 PM 48.0 °F - 36.0 °F 63% 29.95 in 10.0 mi NNE 12.7 mph - N/A   Overcast
5:54 PM 46.9 °F - 36.0 °F 66% 29.95 in 10.0 mi North 10.4 mph - N/A   Overcast
6:54 PM 46.9 °F - 36.0 °F 66% 29.96 in 10.0 mi North 4.6 mph - N/A   Overcast
7:54 PM 46.9 °F - 35.1 °F 63% 29.95 in 10.0 mi North 6.9 mph - N/A   Overcast
8:54 PM 46.0 °F 41.9 °F 35.1 °F 66% 29.97 in 10.0 mi North 8.1 mph - N/A   Overcast
9:54 PM 45.0 °F 41.8 °F 34.0 °F 65% 29.95 in 10.0 mi North 5.8 mph - N/A   Overcast
10:54 PM 45.0 °F 40.6 °F 33.1 °F 63% 29.92 in 10.0 mi North 8.1 mph - N/A   Overcast
11:54 PM 43.0 °F 38.8 °F 32.0 °F 65% 29.91 in 10.0 mi North 6.9 mph - N/A   Overcast